Location: Calvera
(42.3882°N, 0.6137°E)
Time: 19:27:41
(UTC+00:00)

SL-14 R/B - Pass Details

Date: 28 October 2020
Orbit: 518 x 554 km, 82.4° (Epoch: 22 November)

Event Time Altitude Azimuth Distance (km) Brightness Sun altitude
Exits shadow 05:10:00 - 215° (SW) 2,122 6.0 -14.6°
Reaches altitude 10° 05:10:51 10° 220° (SW) 1,806 5.6 -14.5°
Maximum altitude 05:14:26 32° 284° (WNW) 954 4.0 -13.8°
Drops below altitude 10° 05:18:06 10° 349° (N) 1,836 5.8 -13.2°
Sets 05:20:27 0° 359° (N) 2,739 6.8 -12.7°
